Regional Weather Roundup
Issued by NWS

Home | Current Version | Previous Version | Graphics & Text | Print | Product List | Glossary On
Versions: 1 2 3 4 5 6 7 8 9 10 11 12 13 14 15 16 17 18 19 20 21 22 23 24 25 26 27 28 29 30 31 32 33 34 35 36 37 38 39 40 41 42 43 44 45 46 47 48 49 50
000
ASUS43 KFSD 170902
RWRSD

WEATHER ROUNDUP FOR SOUTH DAKOTA
NATIONAL WEATHER SERVICE SIOUX FALLS SD
300 AM CST SAT FEB 17 2018

NOTE: "FAIR" INDICATES FEW OR NO CLOUDS BELOW 12,000 FEET WITH NO
SIGNIFICANT WEATHER AND/OR OBSTRUCTIONS TO VISIBILITY.


SDZ001>005-009-010-012>017-171000-
NORTHWEST AND NORTH CENTRAL SOUTH DAKOTA

CITY           SKY/WX    TMP DP  RH WIND       PRES   REMARKS
BUFFALO          N/A     24  21  88 NW15      29.73R WCI  11
FAITH            N/A     19  18  95 W12       29.80S WCI   7
MOBRIDGE       CLOUDY    15  11  83 CALM      29.80R
$$

SDZ012>016-024>037-041>051-057-063-072>074-171000-
SOUTHWEST AND SOUTH CENTRAL SOUTH DAKOTA

CITY           SKY/WX    TMP DP  RH WIND       PRES   REMARKS
RAPID CTY ARPT CLEAR     19  12  74 VRB3      29.83R
PIERRE         PTCLDY    17  12  80 NW10      29.83F WCI   5
CUSTER         PTCLDY    17   8  67 SW5       29.76R WCI  10
ELLSWORTH AFB  PTCLDY    22  13  67 SW6       29.81R WCI  15
PHILIP         PTCLDY    15  13  91 W7        29.85R WCI   5
PINE RIDGE     PTCLDY    22  19  89 W3        29.84R
SPEARFISH        N/A     28  12  50 W10       29.79R WCI  19
WINNER         FAIR      30  25  81 SW6       29.81S WCI  24
$$

SDZ004>011-016>023-039-040-171000-
NORTHEAST SOUTH DAKOTA

CITY           SKY/WX    TMP DP  RH WIND       PRES   REMARKS
ABERDEEN       CLOUDY    21  17  84 SW6       29.84S WCI  13
WATERTOWN      CLOUDY    21  19  92 S8        29.80F WCI  11
BROOKINGS      CLOUDY    25  20  81 S8        29.84F WCI  16
SISSETON         N/A     28  21  75 SW15      29.80F WCI  16
$$

SDZ017-020-022-023-036>040-048>070-171000-
SOUTHEAST SOUTH DAKOTA

CITY           SKY/WX    TMP DP  RH WIND       PRES   REMARKS
SIOUX FALLS    LGT SNOW  25  22  88 S13       29.88F FOG     WCI  14
HURON          CLOUDY    25  21  85 SE6       29.83F WCI  18
CHAMBERLAIN    CLOUDY    30  26  87 CALM      29.82F
MITCHELL       LGT SNOW  30  27  88 S10       29.86F FOG     WCI  21
YANKTON        MIX PCPN  30  19  63 CALM      29.88F
$$

ABBREVIATIONS USED IN REMARKS
   TC - TEMPERATURE IN CELSIUS
  WCI - WIND CHILL INDEX
   HX - HEAT INDEX
  VSB - VISIBILITY





USA.gov is the U.S. government's official web portal to all federal, state and local government web resources and services.